Location: ??
(35.5052°N, 139.7262°E)
Time: 03:39:37
(UTC+00:00)

NOSS 3-4 (A) - Pass Details

Date: 20 June 2021
Orbit: 870 x 1342 km, 63.4° (Epoch: 23 July)

Event Time Altitude Azimuth Distance (km) Brightness Sun altitude
Exits shadow 18:27:15 11° 209° (SSW) 2,420 5.0 -10.7°
Maximum altitude 18:32:46 88° 122° (ESE) 888 3.3 -9.8°
Drops below altitude 10° 18:38:49 10° 32° (NNE) 2,631 7.1 -8.8°
Sets 18:41:26 0° 32° (NNE) 3,630 8.0 -8.4°
